YAOGAN 30 DEB, 42677

Orbit data source: Space-Track

YAOGAN 30 DEB, 42677 is space debris in SSO originally from a launch on Sun, 15 May 2016 UTC launched from the Jiuquan Satellite Launch Center, China (JSC). Debris objects in space refer to the collection of defunct objects orbiting the Earth. Examples of debris include non-operational satellites, rocket bodies, and fragments generated from explosions, collisions, or faulty payload assembly.

Loading next visibility...
Identifier
42677, 2016-029C
Orbit
SSO
Country
Flag of CNCN / PRC
Related business
Manufacturer
Unknown
Mission
Spacecraft
Bus & Motor
Unknown
Mass
Unknown
Launch date (UTC)
2016-05-15 (10 years ago)
Launch vehicle
Unknown
Launch site
Jiuquan Satellite Launch Center, China (JSC)
Object type
Payload
Rocket body
Debris
Shape & HBR
Unknown shape, 0.1 m
Radar Cross Section
Small (<0.1 m²)

Expand to show TLE details & history
Last TLE update: 3 days ago

TLE from 3 days ago
0 YAOGAN 30 DEB
1 42677U 16029C   26170.27907095  .00001042  00000-0  30290-3 0  9993
2 42677  98.0072 289.7792 0228972  51.0521 311.0827 14.31992781512175
Epoch: 2026-06-19T06:41Z
TLE epoch observation values (Epoch: 2026-06-19T06:41:51.730Z)
Latitude
-0.00003°
Longitude
-78.19667°
Altitude
682.408 km
Speed
7.571 km/s
True Right ascension
19h 19m 07s
True Declination
0° 00' 00"
Sunlit
Object was in full shadow at epoch
Visualization orbit readout
Latitude
Unknown
Longitude
Unknown
Altitude
Unknown
Speed
Unknown
Apparent Right ascension
Unknown
Apparent Declination
Unknown
Sunlit
N/A
Visualization observer readout
Local Sidereal Time
21:29:38
Azimuth
Unknown
Elevation
Unknown
Doppler factor
Unknown
Orbital elements
Apogee altitude
946.137 km
Perigee altitude
618.234 km
Semi-major axis
7,160.322 km
Eccentricity
0.0229
Inclination
98.0072°
RAAN
289.7792°
Arg. of periapsis
51.0521°
True anomaly
309.0675°
Mean anomaly
311.0827°
Eccentric anomaly
310.07888°
Mean motion
3.58215 °/min
Orbital period
100.5 mins
BSTAR
0.0003029
Loading maneuver chart data...
Computing Atmospheric mass density...
Loading historical data...
Loading historical data...
Loading historical data...
Loading historical data...
Loading historical data...
Loading historical data...
Loading historical data...
Other satellites on launch #29 in the year 2016 (2016-05-15 UTC)

Documentation

Showing up to 5 results
|